Hourly Data Report for February 09, 2019

TORONTO CITY
ONTARIO
Current Station Operator: ECCC - MSC

43°40'00.000" N
79°24'00.000" W
112.50 m
6158355
71508
XTO

Download Data

Hourly Data (February 2019)
Hourly Data Report for February 9, 2019
TIME
LST
Temp Definition
°C
Dew Point Definition
°C
Rel Hum Definition
%
Precip. Amount Definition
mm

Wind Dir Definition
10's deg

Wind Spd Definition
km/h
Visibility Definition
km
Stn Press Definition
kPa
Hmdx Definition


Wind Chill Definition


Weather Definition


00:00 -8.6 -15.6 57 0.0 LegendMM LegendMM   101.71     LegendNANA
01:00 -8.3 -16.4 52 0.0 LegendMM LegendMM   101.83     LegendNANA
02:00 -8.6 -14.4 63 0.0 LegendMM LegendMM   101.91     LegendNANA
03:00 -8.8 -14.4 64 0.0 LegendMM LegendMM   102.03     LegendNANA
04:00 -8.6 -14.0 65 0.0 LegendMM LegendMM   102.10     LegendNANA
05:00 -8.4 -13.7 66 0.0 LegendMM LegendMM   102.20     LegendNANA
06:00 -8.0 -13.4 65 0.0 LegendMM LegendMM   102.27     LegendNANA
07:00 -7.8 -13.3 65 0.0 LegendMM LegendMM   102.36     LegendNANA
08:00 -6.9 -13.1 61 0.0 LegendMM LegendMM   102.49     LegendNANA
09:00 -6.4 -12.4 62 0.0 LegendMM LegendMM   102.61     LegendNANA
10:00 -5.8 -12.2 61 0.0 LegendMM LegendMM   102.68     LegendNANA
11:00 -5.1 -10.9 64 0.0 LegendMM LegendMM   102.73     LegendNANA
12:00 -4.1 -12.2 53 0.0 LegendMM LegendMM   102.72     LegendNANA
13:00 -3.9 -12.6 51 0.0 LegendMM LegendMM   102.66     LegendNANA
14:00 -3.7 -12.5 51 0.0 LegendMM LegendMM   102.63     LegendNANA
15:00 -3.3 -12.7 48 0.0 LegendMM LegendMM   102.63     LegendNANA
16:00 -3.4 -11.9 51 0.0 LegendMM LegendMM   102.63     LegendNANA
17:00 -3.9 -12.3 52 0.0 LegendMM LegendMM   102.60     LegendNANA
18:00 -4.2 -12.4 53 0.0 LegendMM LegendMM   102.61     LegendNANA
19:00 -4.4 -10.2 64 0.0 LegendMM LegendMM   102.64     LegendNANA
20:00 -4.9 -10.4 65 0.0 LegendMM LegendMM   102.70     LegendNANA
21:00 -5.3 -11.8 60 0.0 LegendMM LegendMM   102.67     LegendNANA
22:00 -6.0 -12.0 63 0.0 LegendMM LegendMM   102.70     LegendNANA
23:00 -6.7 -12.2 65 0.0 LegendMM LegendMM   102.66     LegendNANA

Notes on Data Quality.

Legend

  • E = Estimated
  • M = Missing
  • NA = Not Available*
  • [empty] = Indicates an unobserved value
Date modified: